Year,Month,Day,Hour,Minute,Value (Times are PST for temperature in C)
2007,05,25,00,00,12.80
2007,05,25,00,01,12.80
2007,05,25,00,02,12.80
2007,05,25,00,03,12.80
2007,05,25,00,04,12.80
2007,05,25,00,05,12.70
2007,05,25,00,06,12.70
2007,05,25,00,07,12.70
2007,05,25,00,08,12.60
2007,05,25,00,09,12.60
2007,05,25,00,10,12.60
2007,05,25,00,11,12.60
2007,05,25,00,12,12.60
2007,05,25,01,02,12.00
2007,05,25,01,03,11.90
2007,05,25,01,04,11.90
2007,05,25,01,05,11.90
2007,05,25,01,06,11.90
2007,05,25,01,07,11.90
2007,05,25,01,08,11.80
2007,05,25,01,09,11.80
2007,05,25,01,10,11.80
2007,05,25,01,11,11.80
2007,05,25,01,12,11.70
2007,05,25,01,13,11.70
2007,05,25,01,14,11.70
2007,05,25,01,15,11.70
2007,05,25,01,16,11.70
2007,05,25,01,17,11.60
2007,05,25,01,18,11.60
2007,05,25,01,19,11.60
2007,05,25,01,20,11.60
2007,05,25,01,21,11.60
2007,05,25,01,22,11.50
2007,05,25,01,23,11.50
2007,05,25,01,24,11.50
2007,05,25,01,25,11.50
2007,05,25,01,26,11.40
2007,05,25,01,27,11.40
2007,05,25,01,28,11.40
2007,05,25,01,29,11.40
2007,05,25,01,30,11.40
2007,05,25,01,31,11.30
2007,05,25,01,32,11.30
2007,05,25,01,33,11.30
2007,05,25,01,34,11.30
2007,05,25,01,35,11.20
2007,05,25,01,36,11.20
2007,05,25,01,37,11.20
2007,05,25,01,38,11.10
2007,05,25,01,39,11.10
2007,05,25,01,40,11.10
2007,05,25,01,41,11.10
2007,05,25,01,42,11.10
2007,05,25,01,43,11.00
2007,05,25,01,44,11.00
2007,05,25,01,45,11.00
2007,05,25,01,46,11.00
2007,05,25,01,47,11.00
2007,05,25,01,48,11.00
2007,05,25,01,49,11.00
2007,05,25,01,50,10.90
2007,05,25,01,51,10.90
2007,05,25,01,52,10.90
2007,05,25,01,53,10.90
2007,05,25,01,54,10.90
2007,05,25,01,55,10.90
2007,05,25,01,56,10.90
2007,05,25,01,57,10.90
2007,05,25,01,58,10.80
2007,05,25,01,59,10.80
2007,05,25,02,00,10.80
2007,05,25,02,01,10.80
2007,05,25,02,02,10.80
2007,05,25,02,03,10.80
2007,05,25,02,04,10.80
2007,05,25,02,05,10.80
2007,05,25,02,06,10.80
2007,05,25,02,07,10.80
2007,05,25,02,08,10.80
2007,05,25,02,09,10.80
2007,05,25,02,10,10.80
2007,05,25,02,11,10.80
2007,05,25,02,12,10.80
2007,05,25,02,13,10.70
2007,05,25,02,14,10.70
2007,05,25,02,15,10.70
2007,05,25,02,16,10.70
2007,05,25,02,17,10.70
2007,05,25,02,18,10.70
2007,05,25,02,19,10.70
2007,05,25,02,20,10.60
2007,05,25,02,21,10.60
2007,05,25,02,22,10.60
2007,05,25,02,23,10.60
2007,05,25,02,24,10.60
2007,05,25,02,25,10.60
2007,05,25,02,26,10.60
2007,05,25,02,27,10.50
2007,05,25,02,28,10.50
2007,05,25,02,29,10.50
2007,05,25,02,30,10.50
2007,05,25,02,31,10.40
2007,05,25,02,32,10.40
2007,05,25,02,33,10.40
2007,05,25,02,34,10.40
2007,05,25,02,35,10.40
2007,05,25,02,36,10.40
2007,05,25,02,37,10.40
2007,05,25,02,38,10.40
2007,05,25,02,39,10.40
2007,05,25,02,40,10.40
2007,05,25,02,41,10.40
2007,05,25,02,42,10.40
2007,05,25,02,43,10.40
2007,05,25,02,44,10.30
2007,05,25,02,45,10.30
2007,05,25,02,46,10.30
2007,05,25,02,47,10.30
2007,05,25,02,48,10.30
2007,05,25,02,49,10.30
2007,05,25,02,50,10.30
2007,05,25,02,51,10.30
2007,05,25,02,52,10.30
2007,05,25,02,53,10.30
2007,05,25,02,54,10.30
2007,05,25,02,55,10.30
2007,05,25,02,56,10.40
2007,05,25,02,57,10.40
2007,05,25,02,58,10.40
2007,05,25,02,59,10.40
2007,05,25,03,00,10.40
2007,05,25,03,01,10.40
2007,05,25,03,02,10.40
2007,05,25,03,03,10.40
2007,05,25,03,04,10.40
2007,05,25,03,05,10.30
2007,05,25,03,06,10.30
2007,05,25,03,07,10.30
2007,05,25,03,08,10.30
2007,05,25,03,09,10.30
2007,05,25,03,10,10.30
2007,05,25,03,11,10.30
2007,05,25,03,12,10.20
2007,05,25,03,13,10.20
2007,05,25,03,14,10.20
2007,05,25,03,15,10.20
2007,05,25,03,16,10.20
2007,05,25,03,17,10.20
2007,05,25,03,18,10.20
2007,05,25,03,19,10.20
2007,05,25,03,20,10.10
2007,05,25,03,21,10.10
2007,05,25,03,22,10.10
2007,05,25,03,23,10.10
2007,05,25,03,24,10.10
2007,05,25,03,25,10.10
2007,05,25,03,26,10.10
2007,05,25,03,27,10.10
2007,05,25,03,28,10.10
2007,05,25,03,29,10.10
2007,05,25,03,30,10.00
2007,05,25,03,31,10.00
2007,05,25,03,32,10.00
2007,05,25,03,33,10.00
2007,05,25,03,34,10.00
2007,05,25,03,35,10.00
2007,05,25,03,36,10.00
2007,05,25,03,37,10.00
2007,05,25,03,38,10.00
2007,05,25,03,39,10.00
2007,05,25,03,40,10.00
2007,05,25,03,41,10.00
2007,05,25,03,42,9.90
2007,05,25,03,43,9.90
2007,05,25,03,44,9.90
2007,05,25,03,45,9.90
2007,05,25,03,46,9.90
2007,05,25,03,47,9.90
2007,05,25,03,48,9.90
2007,05,25,03,49,9.90
2007,05,25,03,50,9.90
2007,05,25,03,51,9.90
2007,05,25,03,52,9.90
2007,05,25,03,53,9.90
2007,05,25,03,54,9.90
2007,05,25,03,55,9.90
2007,05,25,03,56,9.90
2007,05,25,03,57,9.90
2007,05,25,03,58,9.90
2007,05,25,03,59,9.90
2007,05,25,04,00,9.90
2007,05,25,04,01,9.90
2007,05,25,04,02,9.90
2007,05,25,04,03,9.90
2007,05,25,04,04,9.90
2007,05,25,04,05,9.90
2007,05,25,04,06,9.90
2007,05,25,04,07,9.90
2007,05,25,04,08,9.80
2007,05,25,04,09,9.80
2007,05,25,04,10,9.80
2007,05,25,04,11,9.80
2007,05,25,04,12,9.80
2007,05,25,04,13,9.80
2007,05,25,04,14,9.80
2007,05,25,04,15,9.80
2007,05,25,04,16,9.80
2007,05,25,04,17,9.70
2007,05,25,04,18,9.70
2007,05,25,04,19,9.70
2007,05,25,04,20,9.70
2007,05,25,04,21,9.70
2007,05,25,04,22,9.70
2007,05,25,04,23,9.70
2007,05,25,04,24,9.70
2007,05,25,04,25,9.70
2007,05,25,04,26,9.70
2007,05,25,04,27,9.70
2007,05,25,04,28,9.70
2007,05,25,04,29,9.60
2007,05,25,04,30,9.60
2007,05,25,04,31,9.60
2007,05,25,04,32,9.60
2007,05,25,04,33,9.60
2007,05,25,04,34,9.60
2007,05,25,04,35,9.60
2007,05,25,04,36,9.60
2007,05,25,04,37,9.60
2007,05,25,04,38,9.60
2007,05,25,04,39,9.60
2007,05,25,04,40,9.60
2007,05,25,04,41,9.60
2007,05,25,04,42,9.60
2007,05,25,04,43,9.60
2007,05,25,04,44,9.60
2007,05,25,04,45,9.50
2007,05,25,04,46,9.50
2007,05,25,04,47,9.50
2007,05,25,04,48,9.50
2007,05,25,04,49,9.50
2007,05,25,04,50,9.50
2007,05,25,04,51,9.50
2007,05,25,04,52,9.40
2007,05,25,04,53,9.40
2007,05,25,04,54,9.40
2007,05,25,04,55,9.40
2007,05,25,04,56,9.30
2007,05,25,04,57,9.30
2007,05,25,04,58,9.30
2007,05,25,04,59,9.30
2007,05,25,05,00,9.30
2007,05,25,05,01,9.30
2007,05,25,05,02,9.20
2007,05,25,05,03,9.20
2007,05,25,05,04,9.20
2007,05,25,05,05,9.20
2007,05,25,05,06,9.10
2007,05,25,05,07,9.10
2007,05,25,05,08,9.10
2007,05,25,05,09,9.10
2007,05,25,05,10,9.10
2007,05,25,05,11,9.10
2007,05,25,05,12,9.10
2007,05,25,05,13,9.10
2007,05,25,05,14,9.10
2007,05,25,05,15,9.00
2007,05,25,05,16,9.00
2007,05,25,05,17,9.00
2007,05,25,05,18,8.90
2007,05,25,05,19,8.90
2007,05,25,05,20,8.90
2007,05,25,05,21,8.90
2007,05,25,05,22,8.90
2007,05,25,05,23,8.90
2007,05,25,05,24,8.90
2007,05,25,05,25,8.80
2007,05,25,05,26,8.80
2007,05,25,05,27,8.80
2007,05,25,05,28,8.80
2007,05,25,05,29,8.80
2007,05,25,05,30,8.80
2007,05,25,05,31,8.80
2007,05,25,05,32,8.80
2007,05,25,05,33,8.80
2007,05,25,05,34,8.80
2007,05,25,05,35,8.80
2007,05,25,05,36,8.80
2007,05,25,05,37,8.70
2007,05,25,05,38,8.70
2007,05,25,05,39,8.70
2007,05,25,05,40,8.70
2007,05,25,05,41,8.70
2007,05,25,05,42,8.70
2007,05,25,05,43,8.70
2007,05,25,05,44,8.70
2007,05,25,05,45,8.70
2007,05,25,05,46,8.70
2007,05,25,05,47,8.70
2007,05,25,05,48,8.70
2007,05,25,05,49,8.70
2007,05,25,05,50,8.70
2007,05,25,05,51,8.70
2007,05,25,05,52,8.70
2007,05,25,05,53,8.70
2007,05,25,05,54,8.70
2007,05,25,05,55,8.70
2007,05,25,05,56,8.70
2007,05,25,05,57,8.80
2007,05,25,05,58,8.80
2007,05,25,05,59,8.80
2007,05,25,06,00,8.80
2007,05,25,06,01,8.80
2007,05,25,06,02,8.80
2007,05,25,06,03,8.80
2007,05,25,06,04,8.80
2007,05,25,06,05,8.80
2007,05,25,06,06,8.80
2007,05,25,06,07,8.80
2007,05,25,06,08,8.80
2007,05,25,06,09,8.80
2007,05,25,06,10,8.80
2007,05,25,06,11,8.80
2007,05,25,06,12,8.80
2007,05,25,06,13,8.80
2007,05,25,06,14,8.80
2007,05,25,06,15,8.80
2007,05,25,06,16,8.80
2007,05,25,06,17,8.80
2007,05,25,06,18,8.80
2007,05,25,06,19,8.80
2007,05,25,06,20,8.80
2007,05,25,06,21,8.80
2007,05,25,06,22,8.90
2007,05,25,06,23,8.90
2007,05,25,06,24,8.90
2007,05,25,06,25,8.90
2007,05,25,06,26,8.90
2007,05,25,06,27,8.90
2007,05,25,06,28,8.90
2007,05,25,06,29,8.90
2007,05,25,06,30,9.00
2007,05,25,06,31,9.00
2007,05,25,06,32,9.00
2007,05,25,06,33,9.00
2007,05,25,06,34,9.10
2007,05,25,06,35,9.10
2007,05,25,06,36,9.10
2007,05,25,06,37,9.10
2007,05,25,06,38,9.10
2007,05,25,06,39,9.10
2007,05,25,06,40,9.20
2007,05,25,06,41,9.20
2007,05,25,06,42,9.20
2007,05,25,06,43,9.20
2007,05,25,06,44,9.20
2007,05,25,06,45,9.30
2007,05,25,06,46,9.30
2007,05,25,06,47,9.40
2007,05,25,06,48,9.40
2007,05,25,06,49,9.40
2007,05,25,06,50,9.50
2007,05,25,06,51,9.60
2007,05,25,06,52,9.60
2007,05,25,06,53,9.60
2007,05,25,06,54,9.70
2007,05,25,06,55,9.70
2007,05,25,06,56,9.70
2007,05,25,06,57,9.80
2007,05,25,06,58,9.80
2007,05,25,06,59,9.90
2007,05,25,07,00,9.90
2007,05,25,07,01,9.90
2007,05,25,07,02,10.00
2007,05,25,07,03,10.00
2007,05,25,07,04,10.10
2007,05,25,07,05,10.10
2007,05,25,07,06,10.20
2007,05,25,07,07,10.20
2007,05,25,07,08,10.20
2007,05,25,07,09,10.30
2007,05,25,07,10,10.30
2007,05,25,07,11,10.40
2007,05,25,07,12,10.40
2007,05,25,07,13,10.50
2007,05,25,07,14,10.60
2007,05,25,07,15,10.70
2007,05,25,07,16,10.80
2007,05,25,07,17,10.90
2007,05,25,07,18,11.10
2007,05,25,07,19,11.10
2007,05,25,07,20,11.20
2007,05,25,07,21,11.20
2007,05,25,07,22,11.30
2007,05,25,07,23,11.40
2007,05,25,07,24,11.40
2007,05,25,07,25,11.40
2007,05,25,07,26,11.50
2007,05,25,07,27,11.50
2007,05,25,07,28,11.50
2007,05,25,07,29,11.50
2007,05,25,07,30,11.40
2007,05,25,07,31,11.40
2007,05,25,07,32,11.30
2007,05,25,07,33,11.30
2007,05,25,07,34,11.30
2007,05,25,07,35,11.20
2007,05,25,07,36,11.20
2007,05,25,07,37,11.20
2007,05,25,07,38,11.20
2007,05,25,07,39,11.20
2007,05,25,07,40,11.20
2007,05,25,07,41,11.20
2007,05,25,07,42,11.30
2007,05,25,07,43,11.30
2007,05,25,07,44,11.30
2007,05,25,07,45,11.40
2007,05,25,07,46,11.40
2007,05,25,07,47,11.40
2007,05,25,07,48,11.50
2007,05,25,07,49,11.60
2007,05,25,07,50,11.60
2007,05,25,07,51,11.60
2007,05,25,07,52,11.70
2007,05,25,07,53,11.70
2007,05,25,07,54,11.80
2007,05,25,07,55,11.80
2007,05,25,07,56,11.80
2007,05,25,07,57,11.80
2007,05,25,07,58,11.80
2007,05,25,07,59,11.80
2007,05,25,08,00,11.80
2007,05,25,08,01,11.90
2007,05,25,08,02,11.90
2007,05,25,08,03,12.00
2007,05,25,08,04,12.10
2007,05,25,08,05,12.10
2007,05,25,08,06,12.20
2007,05,25,08,07,12.20
2007,05,25,08,08,12.30
2007,05,25,08,09,12.30
2007,05,25,08,10,12.30
2007,05,25,08,11,12.20
2007,05,25,08,12,12.20
2007,05,25,08,13,12.20
2007,05,25,08,14,12.20
2007,05,25,08,15,12.20
2007,05,25,08,16,12.10
2007,05,25,08,17,12.10
2007,05,25,08,18,12.10
2007,05,25,08,19,12.10
2007,05,25,08,20,12.10
2007,05,25,08,21,12.10
2007,05,25,08,22,12.10
2007,05,25,08,23,12.10
2007,05,25,08,24,12.20
2007,05,25,08,25,12.20
2007,05,25,08,26,12.30
2007,05,25,08,27,12.40
2007,05,25,08,28,12.40
2007,05,25,08,29,12.50
2007,05,25,08,30,12.60
2007,05,25,08,31,12.60
2007,05,25,08,32,12.70
2007,05,25,08,33,12.80
2007,05,25,08,34,12.90
2007,05,25,08,35,12.90
2007,05,25,08,36,13.00
2007,05,25,08,37,13.10
2007,05,25,08,38,13.20
2007,05,25,08,39,13.30
2007,05,25,08,40,13.40
2007,05,25,08,41,13.60
2007,05,25,08,42,13.70
2007,05,25,08,43,13.80
2007,05,25,08,44,13.80
2007,05,25,08,45,13.80
2007,05,25,08,46,13.80
2007,05,25,08,47,13.80
2007,05,25,08,48,13.70
2007,05,25,08,49,13.60
2007,05,25,08,50,13.60
2007,05,25,08,51,13.60
2007,05,25,08,52,13.50
2007,05,25,08,53,13.40
2007,05,25,08,54,13.40
2007,05,25,08,55,13.30
2007,05,25,08,56,13.40
2007,05,25,08,57,13.40
2007,05,25,08,58,13.40
2007,05,25,08,59,13.50
2007,05,25,09,00,13.50
2007,05,25,09,01,13.60
2007,05,25,09,02,13.70
2007,05,25,09,03,13.70
2007,05,25,09,04,13.70
2007,05,25,09,05,13.80
2007,05,25,09,06,13.80
2007,05,25,09,07,13.90
2007,05,25,09,08,13.90
2007,05,25,09,09,13.90
2007,05,25,09,10,13.90
2007,05,25,09,11,13.90
2007,05,25,09,12,13.90
2007,05,25,09,13,14.00
2007,05,25,09,14,14.00
2007,05,25,09,15,14.00
2007,05,25,09,16,13.90
2007,05,25,09,17,13.90
2007,05,25,09,18,13.90
2007,05,25,09,19,14.00
2007,05,25,09,20,14.00
2007,05,25,09,21,14.00
2007,05,25,09,22,14.00
2007,05,25,09,23,14.00
2007,05,25,09,24,13.90
2007,05,25,09,25,13.90
2007,05,25,09,26,13.90
2007,05,25,09,27,13.90
2007,05,25,09,28,13.90
2007,05,25,09,29,13.90
2007,05,25,09,30,14.00
2007,05,25,09,31,14.10
2007,05,25,09,32,14.10
2007,05,25,09,33,14.10
2007,05,25,09,34,14.10
2007,05,25,09,35,14.20
2007,05,25,09,36,14.40
2007,05,25,09,37,14.50
2007,05,25,09,38,14.60
2007,05,25,09,39,14.70
2007,05,25,09,40,14.70
2007,05,25,09,41,14.70
2007,05,25,09,42,14.60
2007,05,25,09,43,14.60
2007,05,25,09,44,14.60
2007,05,25,09,45,14.60
2007,05,25,09,46,14.50
2007,05,25,09,47,14.50
2007,05,25,09,48,14.50
2007,05,25,09,49,14.40
2007,05,25,09,50,14.40
2007,05,25,09,51,14.40
2007,05,25,09,52,14.40
2007,05,25,09,53,14.50
2007,05,25,09,54,14.40
2007,05,25,09,55,14.40
2007,05,25,09,56,14.30
2007,05,25,09,57,14.30
2007,05,25,09,58,14.30
2007,05,25,09,59,14.30
2007,05,25,10,00,14.40
2007,05,25,10,01,14.40
2007,05,25,10,02,14.50
2007,05,25,10,03,14.60
2007,05,25,10,04,14.70
2007,05,25,10,05,14.80
2007,05,25,10,06,14.80
2007,05,25,10,07,14.90
2007,05,25,10,08,15.00
2007,05,25,10,09,15.00
2007,05,25,10,10,14.90
2007,05,25,10,11,14.90
2007,05,25,10,12,14.90
2007,05,25,10,13,14.90
2007,05,25,10,14,14.90
2007,05,25,10,15,15.00
2007,05,25,10,16,15.00
2007,05,25,10,17,15.00
2007,05,25,10,18,15.00
2007,05,25,10,19,15.00
2007,05,25,10,20,15.00
2007,05,25,10,21,15.00
2007,05,25,10,22,15.00
2007,05,25,10,23,15.00
2007,05,25,10,24,15.00
2007,05,25,10,25,15.00
2007,05,25,10,26,15.00
2007,05,25,10,27,15.00
2007,05,25,10,28,15.00
2007,05,25,10,29,15.10
2007,05,25,10,30,15.20
2007,05,25,10,31,15.20
2007,05,25,10,32,15.20
2007,05,25,10,33,15.20
2007,05,25,10,34,15.30
2007,05,25,10,35,15.30
2007,05,25,10,36,15.20
2007,05,25,10,37,15.10
2007,05,25,10,38,15.10
2007,05,25,10,39,15.00
2007,05,25,10,40,15.00
2007,05,25,10,41,15.00
2007,05,25,10,42,15.00
2007,05,25,10,43,15.10
2007,05,25,10,44,15.10
2007,05,25,10,45,15.20
2007,05,25,10,46,15.10
2007,05,25,10,47,15.10
2007,05,25,10,48,15.10
2007,05,25,10,49,15.10
2007,05,25,10,50,15.20
2007,05,25,10,51,15.30
2007,05,25,10,52,15.40
2007,05,25,10,53,15.50
2007,05,25,10,54,15.50
2007,05,25,10,55,15.60
2007,05,25,10,56,15.60
2007,05,25,10,57,15.60
2007,05,25,10,58,15.60
2007,05,25,10,59,15.70
2007,05,25,11,00,15.60
2007,05,25,11,01,15.60
2007,05,25,11,02,15.60
2007,05,25,11,03,15.60
2007,05,25,11,04,15.60
2007,05,25,11,05,15.60
2007,05,25,11,06,15.60
2007,05,25,11,07,15.60
2007,05,25,11,08,15.60
2007,05,25,11,09,15.70
2007,05,25,11,10,15.70
2007,05,25,11,11,15.80
2007,05,25,11,12,15.90
2007,05,25,11,13,16.00
2007,05,25,11,14,16.10
2007,05,25,11,15,16.20
2007,05,25,11,16,16.30
2007,05,25,11,17,16.40
2007,05,25,11,18,16.50
2007,05,25,11,19,16.60
2007,05,25,11,20,16.70
2007,05,25,11,21,16.70
2007,05,25,11,22,16.60
2007,05,25,11,23,16.60
2007,05,25,11,24,16.60
2007,05,25,11,25,16.70
2007,05,25,11,26,16.70
2007,05,25,11,27,16.80
2007,05,25,11,28,16.80
2007,05,25,11,29,16.80
2007,05,25,11,30,16.80
2007,05,25,11,31,16.80
2007,05,25,11,32,16.70
2007,05,25,11,33,16.70
2007,05,25,11,34,16.70
2007,05,25,11,35,16.70
2007,05,25,11,36,16.70
2007,05,25,11,37,16.70
2007,05,25,11,38,16.70
2007,05,25,11,39,16.70
2007,05,25,11,40,16.70
2007,05,25,11,41,16.60
2007,05,25,11,42,16.50
2007,05,25,11,43,16.40
2007,05,25,11,44,16.40
2007,05,25,11,45,16.40
2007,05,25,11,46,16.40
2007,05,25,11,47,16.40
2007,05,25,11,48,16.40
2007,05,25,11,49,16.40
2007,05,25,11,50,16.30
2007,05,25,11,51,16.30
2007,05,25,11,52,16.30
2007,05,25,11,53,16.20
2007,05,25,11,54,16.20
2007,05,25,11,55,16.20
2007,05,25,11,56,16.20
2007,05,25,11,57,16.20
2007,05,25,11,58,16.20
2007,05,25,11,59,16.20
2007,05,25,12,00,16.20
2007,05,25,12,01,16.30
2007,05,25,12,02,16.30
2007,05,25,12,03,16.30
2007,05,25,12,04,16.30
2007,05,25,12,05,16.30
2007,05,25,12,06,16.30
2007,05,25,12,07,16.40
2007,05,25,12,08,16.40
2007,05,25,12,09,16.40
2007,05,25,12,10,16.40
2007,05,25,12,11,16.50
2007,05,25,12,12,16.50
2007,05,25,12,13,16.60
2007,05,25,12,14,16.60
2007,05,25,12,15,16.70
2007,05,25,12,16,16.70
2007,05,25,12,17,16.60
2007,05,25,12,18,16.60
2007,05,25,12,19,16.60
2007,05,25,12,20,16.50
2007,05,25,12,21,16.60
2007,05,25,12,22,16.50
2007,05,25,12,23,16.60
2007,05,25,12,24,16.60
2007,05,25,12,25,16.70
2007,05,25,12,26,16.80
2007,05,25,12,27,16.80
2007,05,25,12,28,16.70
2007,05,25,12,29,16.70
2007,05,25,12,30,16.70
2007,05,25,12,31,16.80
2007,05,25,12,32,16.80
2007,05,25,12,33,16.90
2007,05,25,12,34,17.00
2007,05,25,12,35,17.10
2007,05,25,12,36,17.10
2007,05,25,12,37,17.20
2007,05,25,12,38,17.20
2007,05,25,12,39,17.30
2007,05,25,12,40,17.30
2007,05,25,12,41,17.30
2007,05,25,12,42,17.20
2007,05,25,12,43,17.10
2007,05,25,12,44,17.10
2007,05,25,12,45,17.10
2007,05,25,12,46,17.00
2007,05,25,12,47,17.10
2007,05,25,12,48,17.10
2007,05,25,12,49,17.20
2007,05,25,12,50,17.30
2007,05,25,12,51,17.30
2007,05,25,12,52,17.30
2007,05,25,12,53,17.30
2007,05,25,12,54,17.20
2007,05,25,12,55,17.20
2007,05,25,12,56,17.20
2007,05,25,12,57,17.20
2007,05,25,12,58,17.20
2007,05,25,12,59,17.20
2007,05,25,13,00,17.20
2007,05,25,13,01,17.20
2007,05,25,13,02,17.20
2007,05,25,13,03,17.20
2007,05,25,13,04,17.20
2007,05,25,13,05,17.20
2007,05,25,13,06,17.20
2007,05,25,13,07,17.20
2007,05,25,13,08,17.20
2007,05,25,13,09,17.20
2007,05,25,13,10,17.20
2007,05,25,13,11,17.20
2007,05,25,13,12,17.20
2007,05,25,13,13,17.30
2007,05,25,13,14,17.30
2007,05,25,13,15,17.30
2007,05,25,13,16,17.30
2007,05,25,13,17,17.30
2007,05,25,13,18,17.40
2007,05,25,13,19,17.40
2007,05,25,13,20,17.40
2007,05,25,13,21,17.40
2007,05,25,13,22,17.50
2007,05,25,13,23,17.50
2007,05,25,13,24,17.50
2007,05,25,13,25,17.40
2007,05,25,13,26,17.30
2007,05,25,13,27,17.30
2007,05,25,13,28,17.30
2007,05,25,13,29,17.30
2007,05,25,13,30,17.40
2007,05,25,13,31,17.40
2007,05,25,13,32,17.50
2007,05,25,13,33,17.60
2007,05,25,13,34,17.70
2007,05,25,13,35,17.70
2007,05,25,13,36,17.70
2007,05,25,13,37,17.80
2007,05,25,13,38,17.70
2007,05,25,13,39,17.70
2007,05,25,13,40,17.70
2007,05,25,13,41,17.70
2007,05,25,13,42,17.70
2007,05,25,13,43,17.60
2007,05,25,13,44,17.50
2007,05,25,13,45,17.40
2007,05,25,13,46,17.40
2007,05,25,13,47,17.40
2007,05,25,13,48,17.40
2007,05,25,13,49,17.40
2007,05,25,13,50,17.50
2007,05,25,13,51,17.60
2007,05,25,13,52,17.70
2007,05,25,13,53,17.70
2007,05,25,13,54,17.70
2007,05,25,13,55,17.70
2007,05,25,13,56,17.70
2007,05,25,13,57,17.80
2007,05,25,13,58,17.90
2007,05,25,13,59,18.00
2007,05,25,14,00,18.20
2007,05,25,14,01,18.30
2007,05,25,14,02,18.40
2007,05,25,14,03,18.50
2007,05,25,14,04,18.60
2007,05,25,14,05,18.60
2007,05,25,14,06,18.60
2007,05,25,14,07,18.60
2007,05,25,14,08,18.60
2007,05,25,14,09,18.60
2007,05,25,14,10,18.60
2007,05,25,14,11,18.60
2007,05,25,14,12,18.60
2007,05,25,14,13,18.60
2007,05,25,14,14,18.60
2007,05,25,14,15,18.50
2007,05,25,14,16,18.40
2007,05,25,14,17,18.30
2007,05,25,14,18,18.20
2007,05,25,14,19,18.10
2007,05,25,14,20,18.10
2007,05,25,14,21,18.20
2007,05,25,14,22,18.20
2007,05,25,14,23,18.20
2007,05,25,14,24,18.20
2007,05,25,14,25,18.30
2007,05,25,14,26,18.30
2007,05,25,14,27,18.50
2007,05,25,14,28,18.60
2007,05,25,14,29,18.80
2007,05,25,14,30,19.00
2007,05,25,14,31,19.20
2007,05,25,14,32,19.30
2007,05,25,14,33,19.50
2007,05,25,14,34,19.60
2007,05,25,14,35,19.90
2007,05,25,14,36,20.00
2007,05,25,14,37,20.30
2007,05,25,14,38,20.50
2007,05,25,14,39,20.70
2007,05,25,14,40,20.90
2007,05,25,14,41,21.10
2007,05,25,14,42,21.20
2007,05,25,14,43,21.20
2007,05,25,14,44,21.30
2007,05,25,14,45,21.40
2007,05,25,14,46,21.40
2007,05,25,14,47,21.40
2007,05,25,14,48,21.40
2007,05,25,14,49,21.40
2007,05,25,14,50,21.40
2007,05,25,14,51,21.50
2007,05,25,14,52,21.50
2007,05,25,14,53,21.40
2007,05,25,14,54,21.40
2007,05,25,14,55,21.30
2007,05,25,14,56,21.30
2007,05,25,14,57,21.30
2007,05,25,14,58,21.20
2007,05,25,14,59,21.20
2007,05,25,15,00,21.20
2007,05,25,15,01,21.30
2007,05,25,15,02,21.30
2007,05,25,15,03,21.40
2007,05,25,15,04,21.50
2007,05,25,15,05,21.60
2007,05,25,15,06,21.70
2007,05,25,15,07,21.70
2007,05,25,15,08,21.70
2007,05,25,15,09,21.70
2007,05,25,15,10,21.70
2007,05,25,15,11,21.70
2007,05,25,15,12,21.70
2007,05,25,15,13,21.70
2007,05,25,15,14,21.80
2007,05,25,15,15,21.80
2007,05,25,15,16,21.70
2007,05,25,15,17,21.60
2007,05,25,15,18,21.50
2007,05,25,15,19,21.60
2007,05,25,15,20,21.60
2007,05,25,15,21,21.60
2007,05,25,15,22,21.60
2007,05,25,15,23,21.60
2007,05,25,15,24,21.60
2007,05,25,15,25,21.50
2007,05,25,15,26,21.50
2007,05,25,15,27,21.40
2007,05,25,15,28,21.30
2007,05,25,15,29,21.20
2007,05,25,15,30,21.20
2007,05,25,15,31,21.20
2007,05,25,15,32,21.20
2007,05,25,15,33,21.10
2007,05,25,15,34,21.00
2007,05,25,15,35,20.90
2007,05,25,15,36,20.70
2007,05,25,15,37,20.60
2007,05,25,15,38,20.50
2007,05,25,15,39,20.40
2007,05,25,15,40,20.40
2007,05,25,15,41,20.40
2007,05,25,15,42,20.40
2007,05,25,15,43,20.40
2007,05,25,15,44,20.40
2007,05,25,15,45,20.40
2007,05,25,15,46,20.40
2007,05,25,15,47,20.30
2007,05,25,15,48,20.20
2007,05,25,15,49,20.10
2007,05,25,15,50,20.10
2007,05,25,15,51,20.00
2007,05,25,15,52,20.00
2007,05,25,15,53,19.90
2007,05,25,15,54,19.90
2007,05,25,15,55,19.90
2007,05,25,15,56,19.80
2007,05,25,15,57,19.80
2007,05,25,15,58,19.80
2007,05,25,15,59,19.80
2007,05,25,16,00,19.80
2007,05,25,16,01,19.80
2007,05,25,16,02,19.80
2007,05,25,16,03,19.90
2007,05,25,16,04,19.90
2007,05,25,16,05,20.00
2007,05,25,16,06,20.00
2007,05,25,16,07,20.00
2007,05,25,16,08,20.00
2007,05,25,16,09,20.00
2007,05,25,16,10,20.10
2007,05,25,16,11,20.10
2007,05,25,16,12,20.10
2007,05,25,16,13,20.10
2007,05,25,16,14,20.00
2007,05,25,16,15,20.00
2007,05,25,16,16,19.90
2007,05,25,16,17,19.90
2007,05,25,16,18,19.90
2007,05,25,16,19,19.90
2007,05,25,16,20,19.90
2007,05,25,16,21,19.90
2007,05,25,16,22,20.00
2007,05,25,16,23,20.00
2007,05,25,16,24,20.00
2007,05,25,16,25,20.10
2007,05,25,16,26,20.10
2007,05,25,16,27,20.10
2007,05,25,16,28,20.10
2007,05,25,16,29,20.10
2007,05,25,16,30,20.20
2007,05,25,16,31,20.20
2007,05,25,16,32,20.20
2007,05,25,16,33,20.30
2007,05,25,16,34,20.40
2007,05,25,16,35,20.50
2007,05,25,16,36,20.60
2007,05,25,16,37,20.70
2007,05,25,16,38,20.80
2007,05,25,16,39,20.80
2007,05,25,16,40,20.90
2007,05,25,16,41,21.00
2007,05,25,16,42,21.10
2007,05,25,16,43,21.20
2007,05,25,16,44,21.20
2007,05,25,16,45,21.30
2007,05,25,16,46,21.30
2007,05,25,16,47,21.30
2007,05,25,16,48,21.30
2007,05,25,16,49,21.30
2007,05,25,16,50,21.30
2007,05,25,16,51,21.30
2007,05,25,16,52,21.30
2007,05,25,16,53,21.30
2007,05,25,16,54,21.30
2007,05,25,16,55,21.20
2007,05,25,16,56,21.20
2007,05,25,16,57,21.10
2007,05,25,16,58,21.10
2007,05,25,16,59,21.00
2007,05,25,17,00,20.90
2007,05,25,17,01,20.90
2007,05,25,17,02,20.80
2007,05,25,17,03,20.80
2007,05,25,17,04,20.80
2007,05,25,17,05,20.80
2007,05,25,17,06,20.80
2007,05,25,17,07,20.70
2007,05,25,17,08,20.80
2007,05,25,17,09,20.80
2007,05,25,17,10,20.80
2007,05,25,17,11,20.80
2007,05,25,17,12,20.80
2007,05,25,17,13,20.80
2007,05,25,17,14,20.80
2007,05,25,17,15,20.80
2007,05,25,17,16,20.80
2007,05,25,17,17,20.80
2007,05,25,17,18,20.80
2007,05,25,17,19,20.80
2007,05,25,17,20,20.80
2007,05,25,17,21,20.80
2007,05,25,17,22,20.90
2007,05,25,17,23,21.00
2007,05,25,17,24,21.10
2007,05,25,17,25,21.10
2007,05,25,17,26,21.10
2007,05,25,17,27,21.00
2007,05,25,17,28,20.90
2007,05,25,17,29,20.80
2007,05,25,17,30,20.70
2007,05,25,17,31,20.60
2007,05,25,17,32,20.50
2007,05,25,17,33,20.40
2007,05,25,17,34,20.30
2007,05,25,17,35,20.30
2007,05,25,17,36,20.30
2007,05,25,17,37,20.20
2007,05,25,17,38,20.20
2007,05,25,17,39,20.20
2007,05,25,17,40,20.20
2007,05,25,17,41,20.30
2007,05,25,17,42,20.30
2007,05,25,17,43,20.40
2007,05,25,17,44,20.40
2007,05,25,17,45,20.50
2007,05,25,17,46,20.50
2007,05,25,17,47,20.50
2007,05,25,17,48,20.50
2007,05,25,17,49,20.60
2007,05,25,17,50,20.60
2007,05,25,17,51,20.60
2007,05,25,17,52,20.60
2007,05,25,17,53,20.50
2007,05,25,17,54,20.60
2007,05,25,17,55,20.60
2007,05,25,17,56,20.60
2007,05,25,17,57,20.60
2007,05,25,17,58,20.60
2007,05,25,17,59,20.50
2007,05,25,18,00,20.40
2007,05,25,18,01,20.40
2007,05,25,18,02,20.40
2007,05,25,18,03,20.40
2007,05,25,18,04,20.30
2007,05,25,18,05,20.30
2007,05,25,18,06,20.40
2007,05,25,18,07,20.40
2007,05,25,18,08,20.30
2007,05,25,18,09,20.30
2007,05,25,18,10,20.40
2007,05,25,18,11,20.30
2007,05,25,18,12,20.30
2007,05,25,18,13,20.20
2007,05,25,18,14,20.20
2007,05,25,18,15,20.10
2007,05,25,18,16,20.10
2007,05,25,18,17,20.10